Meridian, MS

4:24 AM CDT on May 25, 2018 (GMT -0500)
Key

Weather History for KMEI - April, 2013

Change the Weather History Date:

Tuesday, April 9, 2013

  Actual Average Record
Temperature  
Mean Temperature 75 °F 61 °F  
Max Temperature 84 °F 75 °F 88 °F (2011)
Min Temperature 66 °F 47 °F 30 °F (2000)
Degree Days  
Heating Degree Days 0 6  
Month to date heating degree days 58 57  
Since 1 July heating degree days 2379 2461  
Cooling Degree Days 10 1  
Month to date cooling degree days 11 9  
Year to date cooling degree days 30 33  
Growing Degree Days 25 (Base 50)    
Moisture  
Dew Point 65 °F    
Average Humidity 74    
Maximum Humidity 93    
Minimum Humidity 55    
Precipitation  
Precipitation T in 0.17 in 2.27 in (1943)
Month to date precipitation 0.47 1.50  
Year to date precipitation 23.05 17.65  
Sea Level Pressure  
Sea Level Pressure 30.01 in    
Wind  
Wind Speed 10 mph (SSE)    
Max Wind Speed 21 mph    
Max Gust Speed 26 mph    
Visibility 10 miles    
Events      
T = Trace of Precipitation, MM = Missing Value Source: NWS Daily Summary

Daily Weather History Graph

Daily Weather History Graph

Search for Another Location

Airport or City:

Astronomy

Apr. 09, 2013 Rise Set
Actual Time 6:32 AM CDT 7:20 PM CDT
Civil Twilight 6:07 AM CDT 7:45 PM CDT
Nautical Twilight 5:38 AM CDT 8:15 PM CDT
Astronomical Twilight 5:08 AM CDT 8:45 PM CDT
Moon 5:53 AM CDT (4/9) 6:55 PM CDT (4/9)
Length of Visible Light 13h 37m
Length of Day
12h 47m
Waning Crescent, 1% of the Moon is Illuminated
Apr 9
Waning Crescent
Apr 10
New
Apr 18
First Quarter
Apr 25
Full
May 2
Last Quarter

Hourly Weather History & Observations

Time (CDT) Temp. Heat Index Dew Point Humidity Pressure Visibility Wind Dir Wind Speed Gust Speed Precip Events Conditions
12:58 AM 66.0 °F - 63.0 °F 90% 29.98 in 10.0 mi South 9.2 mph - N/A   Clear
1:21 AM 66.2 °F - 62.6 °F 88% 29.98 in 10.0 mi SSE 9.2 mph - N/A   Mostly Cloudy
1:58 AM 66.0 °F - 63.0 °F 90% 29.98 in 10.0 mi South 10.4 mph - N/A   Overcast
2:33 AM 66.2 °F - 62.6 °F 88% 29.99 in 10.0 mi South 8.1 mph - N/A   Overcast
2:58 AM 66.9 °F - 64.0 °F 90% 29.97 in 10.0 mi South 6.9 mph - N/A   Overcast
3:58 AM 66.9 °F - 64.0 °F 90% 29.96 in 10.0 mi SSE 4.6 mph - N/A   Overcast
4:58 AM 68.0 °F - 64.9 °F 90% 29.96 in 10.0 mi SSE 5.8 mph - N/A   Overcast
5:19 AM 68.0 °F - 64.4 °F 88% 29.98 in 10.0 mi SE 8.1 mph - N/A   Overcast
5:28 AM 68.0 °F - 64.4 °F 88% 29.98 in 10.0 mi SSE 5.8 mph - N/A   Overcast
5:39 AM 68.0 °F - 64.4 °F 88% 29.98 in 10.0 mi SSE 8.1 mph - N/A   Overcast
5:50 AM 68.0 °F - 64.4 °F 88% 29.99 in 10.0 mi SSE 8.1 mph - N/A   Overcast
5:58 AM 68.0 °F - 64.9 °F 90% 29.98 in 10.0 mi SSE 8.1 mph - N/A   Overcast
6:26 AM 68.0 °F - 64.4 °F 88% 29.99 in 10.0 mi SE 9.2 mph - N/A   Overcast
6:58 AM 68.0 °F - 64.9 °F 90% 30.00 in 9.0 mi SSE 6.9 mph - N/A   Overcast
7:29 AM 69.8 °F - 64.4 °F 83% 30.01 in 9.0 mi SE 6.9 mph - N/A   Overcast
7:44 AM 69.8 °F - 66.2 °F 88% 30.03 in 10.0 mi SSE 6.9 mph - N/A   Overcast
7:54 AM 69.8 °F - 66.2 °F 88% 30.03 in 10.0 mi SSE 9.2 mph - N/A   Overcast
7:58 AM 69.1 °F - 66.0 °F 90% 30.03 in 10.0 mi SSE 5.8 mph - N/A   Overcast
8:11 AM 69.8 °F - 66.2 °F 88% 30.05 in 10.0 mi South 6.9 mph - 0.00 in   Overcast
8:26 AM 69.8 °F - 66.2 °F 88% 30.05 in 10.0 mi South 8.1 mph - 0.00 in   Overcast
8:39 AM 71.6 °F - 66.2 °F 83% 30.06 in 10.0 mi South 5.8 mph - 0.00 in   Overcast
8:58 AM 71.1 °F - 66.0 °F 84% 30.06 in 10.0 mi South 6.9 mph - 0.00 in   Overcast
9:58 AM 73.0 °F - 66.0 °F 79% 30.06 in 10.0 mi South 9.2 mph - N/A   Mostly Cloudy
10:50 AM 75.2 °F - 66.2 °F 73% 30.07 in 10.0 mi South 12.7 mph - N/A   Overcast
10:58 AM 75.9 °F - 66.0 °F 71% 30.06 in 10.0 mi South 11.5 mph - N/A   Overcast
11:58 AM 75.9 °F - 66.0 °F 71% 30.05 in 10.0 mi SSE 12.7 mph - N/A   Partly Cloudy
12:58 PM 77.0 °F - 66.9 °F 71% 30.04 in 10.0 mi South 10.4 mph - N/A   Overcast
1:58 PM 80.1 °F 82.1 °F 66.0 °F 62% 30.03 in 10.0 mi South 13.8 mph 23.0 mph N/A   Overcast
2:58 PM 81.0 °F 83.3 °F 66.9 °F 62% 30.01 in 10.0 mi South 11.5 mph - N/A   Mostly Cloudy
3:58 PM 82.9 °F 84.6 °F 64.9 °F 54% 29.99 in 10.0 mi SSE 15.0 mph 21.9 mph N/A   Partly Cloudy
4:58 PM 82.0 °F 84.1 °F 66.0 °F 58% 29.98 in 10.0 mi SSE 16.1 mph 21.9 mph N/A   Scattered Clouds
5:58 PM 79.0 °F - 64.9 °F 62% 29.99 in 10.0 mi SSE 15.0 mph - N/A   Scattered Clouds
6:58 PM 77.0 °F - 64.9 °F 66% 30.01 in 10.0 mi South 13.8 mph 19.6 mph N/A   Clear
7:58 PM 73.9 °F - 64.9 °F 73% 30.02 in 10.0 mi South 8.1 mph - N/A   Partly Cloudy
8:58 PM 73.0 °F - 64.9 °F 76% 30.04 in 10.0 mi South 9.2 mph - N/A   Partly Cloudy
9:58 PM 72.0 °F - 64.0 °F 76% 30.04 in 10.0 mi South 11.5 mph - N/A   Overcast
10:58 PM 71.1 °F - 63.0 °F 75% 30.01 in 10.0 mi SSE 10.4 mph - N/A   Partly Cloudy
11:58 PM 70.0 °F - 63.0 °F 78% 29.99 in 10.0 mi SSE 10.4 mph - N/A   Clear